This is the latest recevied weather packets stored in our database for station/object IU7URP-13. If no packets are shown the sender has not sent any weather packets the latest 10 day(s).
| Time | Temp. | Humidity | Pressure | Rain* | Wind** | Luminosity | Snow |
|---|---|---|---|---|---|---|---|
| 1777976863 | 23.33° C | 99% | 1020.4 hPa | - | - | - | - |
| 1777975662 | 22.22° C | 99% | 1020.3 hPa | - | - | - | - |
| 1777974460 | 22.78° C | 99% | 1020.4 hPa | - | - | - | - |
| 1777973259 | 21.67° C | 99% | 1020.6 hPa | - | - | - | - |
| 1777972479 | 22.78° C | 99% | 1020.7 hPa | - | - | - | - |
| 1777971277 | 22.22° C | 99% | 1020.9 hPa | - | - | - | - |
| 1777970075 | 22.22° C | 99% | 1020.9 hPa | - | - | - | - |
| 1777968874 | 21.11° C | 99% | 1020.9 hPa | - | - | - | - |
| 1777967673 | 22.22° C | 99% | 1021.2 hPa | - | - | - | - |
| 1777966471 | 21.11° C | 99% | 1021.3 hPa | - | - | - | - |
| 1777965270 | 20.56° C | 99% | 1021.3 hPa | - | - | - | - |
| 1777964069 | 19.44° C | 99% | 1021.5 hPa | - | - | - | - |
| 1777963633 | 20° C | 99% | 1021.5 hPa | - | - | - | - |
| 1777962432 | 18.89° C | 99% | 1021.4 hPa | - | - | - | - |
| 1777962374 | 18.89° C | 99% | 1021.4 hPa | - | - | - | - |
| 1777961173 | 18.33° C | 99% | 1021.4 hPa | - | - | - | - |
| 1777959971 | 18.33° C | 99% | 1021.4 hPa | - | - | - | - |
| 1777958770 | 17.22° C | 99% | 1021.4 hPa | - | - | - | - |
| 1777957568 | 16.67° C | 99% | 1021.4 hPa | - | - | - | - |
| 1777956762 | 15° C | 99% | 1021.4 hPa | - | - | - | - |
| 1777955560 | 15° C | 99% | 1021.4 hPa | - | - | - | - |
| 1777954359 | 14.44° C | 99% | 1021.4 hPa | - | - | - | - |
| 1777953158 | 13.89° C | 99% | 1021.3 hPa | - | - | - | - |
| 1777951956 | 13.89° C | 99% | 1021.4 hPa | - | - | - | - |
| 1777951885 | 13.89° C | 99% | 1021.4 hPa | - | - | - | - |
* Rain since midnight (hover to see other rain measurements)
** Current wind speed in m/s (hover to see current wind gust speed)